Location: Prague
(50.0830°N, 14.4670°E)
Time: 10:20:32
(UTC+01:00)

Oscar 11 - Pass Details

Date: 07 December 2021
Orbit: 611 x 625 km, 97.6° (Epoch: 26 January)

Event Time Altitude Azimuth Distance (km) Brightness Sun altitude
Rises 06:45:10 0° 3° (N) 2,919 10.3 -9.4°
Reaches altitude 10° 06:47:44 10° 349° (N) 2,005 9.3 -9.0°
Maximum altitude 06:51:08 23° 298° (WNW) 1,342 8.2 -8.5°
Drops below altitude 10° 06:54:31 10° 246° (WSW) 1,988 9.3 -8.0°
Sets 06:57:02 0° 232° (SW) 2,886 10.2 -7.7°
